SL-12 DEB, 41768

Orbit data source: Space-Track

SL-12 DEB, 41768 is space debris in HEO originally from a launch on Mon, 25 Dec 2006 UTC launched from the Tyuratam Missile And Space Complex (TTMTR). Debris objects in space refer to the collection of defunct objects orbiting the Earth. Examples of debris include non-operational satellites, rocket bodies, and fragments generated from explosions, collisions, or faulty payload assembly.

Loading next visibility...
SL-12 DEB details
Identifier
41768, 2006-062J
Orbit
HEO
Last TLE update20 hours ago
Origin
Flag of CISVVKO VKS (CIS)
ManufacturerRKKE
MissionSpacecraft
Bus & MotorUnknown
MassUnknown
Launch date (UTC)
2006-12-25 (18 years ago)
Launch vehicleUnknown
Launch site
Tyuratam Missile And Space Complex (TTMTR)
Object type
Payload
Rocket body
Debris
Shape & HBRUnknown
Radar Cross SectionSmall (<0.1 m²)

Expand to show TLE details & history

TLE from 20 hours ago
0 SL-12 DEB
1 41768U 06062J   24360.56233811  .00000974  00000-0  67775-2 0  9998
2 41768  64.5922 131.8003 5457217 303.0244  15.8663  4.48516576131469
Epoch: 2024-12-25T13:29Z
Definitive object data (Epoch: 2024-12-25T13:29:46.012Z)
Latitude-0.00018°
Longitude-165.2005°
Altitude2,033.022 km
Speed8.315 km/s
True Right ascension08h 47m 10s
True Declination0° 00' 01"
Sunlit
Object was in full shadow at TLE epoch
Visualization TLE readout
Latitude-9.53037°
Longitude19.03203°
Altitude7,415.51 km
Speed5.669 km/s
Apparent Right ascension21h 07m 55s
Apparent Declination-18° 56' 33"
Sunlit
Object is in daylight
Visualization observer readout
Local Sidereal Time09:18:31
Azimuth6.98° NNE
Elevation-68.902°
Doppler factor1
Orbital elements
Apogee altitude17,627.74 km
Perigee altitude677.046 km
Semi-major axis15,530.53 km
Eccentricity0.5457217
Inclination64.5922°
RAAN131.8003°
Arg. of periapsis303.0244°
True anomaly57.0069°
Mean anomaly15.8663°
Eccentric anomaly32.80774°
Mean motion1.12141 °/min
BSTAR0.0067775
Orbital period321.02 mins
Loading maneuver chart data...
Loading historical data...
Loading historical data...
Loading historical data...
Loading historical data...
Loading historical data...
Loading historical data...
Loading historical data...

SL-12 DEB Visibility forecast

Observer location: undefined°, undefined

Span
Click to sort rows by Start time (UTC) header in descending order
Start Az.
Max El. time (UTC)
Max El. Az.
Max El.
End time (UTC)
End Az.
166 mins2024-12-26 10:57:25.585Z213.78° SW2024-12-26 11:15:25.585Z294.551° NW44.859°2024-12-26 13:43:25.585Z55.436° ENE
234 mins2024-12-26 16:46:25.585Z308.804° NW2024-12-26 19:06:25.585Z75.225° E44.571°2024-12-26 20:40:25.585Z160.604° S
146 mins2024-12-26 22:51:25.585Z332.247° NNW2024-12-27 00:00:25.585Z307.319° NW22.808°2024-12-27 01:17:25.585Z274.75° WNW
93 mins2024-12-27 08:22:25.585Z143.32° SSE2024-12-27 08:38:25.585Z80.066° E33.625°2024-12-27 09:55:25.585Z30.08° NE
|